Location: Kaltenbach
(49.2000°N, 7.7500°E)
Time: 22:48:52
(UTC+00:00)

CZ-4 R/B - Pass Details

Date: 24 January 2020
Orbit: 534 x 597 km, 97.7° (Epoch: 17 February)

Event Time Altitude Azimuth Distance (km) Brightness Sun altitude
Rises 17:25:49 0° 156° (SSE) 2,759 4.8 -12.0°
Reaches altitude 10° 17:27:56 10° 153° (SSE) 1,877 3.9 -12.3°
Maximum altitude 17:31:58 63° 73° (ENE) 652 1.4 -13.0°
Drops below altitude 10° 17:36:06 10° 352° (N) 1,926 4.0 -13.6°
Sets 17:38:18 0° 350° (N) 2,839 4.9 -14.0°
